Retour au catalogue

NAHLA

ActifScienceSSO
NORAD 66764·PAYLOAD·🇧🇪 Belgium

Lancé Nov 28, 2025 depuis Vandenberg Space Force Base

Loading…

Prochains Passages (prochaines 24 heures)

TLE

FraisSource: Space-Track

Époque: Sep 14, 2026, 15:08 UTC

1 66764U 25276DC  26257.63093486  .00001973  00000-0  96777-4 0  9992
2 66764  97.4127 329.4524 0003649  45.8018 314.3516 15.19273640 43994

Suivez NAHLA en temps réel avec AllMySat

Download on the App Store